Weather reports worldwide

Advertisment
Barranda, Spain (8365): temperature & dewpoint: 13.01.2021 06:00:00 - 19.01.2021 06:00:00 (CET)Barranda, Spain (8365): wind speed & gusts: 13.01.2021 06:00:00 - 19.01.2021 06:00:00 (CET)Barranda, Spain (8365): wind direction: 13.01.2021 06:00:00 - 19.01.2021 06:00:00 (CET)Barranda, Spain (8365): reduced air pressure: 13.01.2021 06:00:00 - 19.01.2021 06:00:00 (CET)Barranda, Spain (8365): visibility: 13.01.2021 06:00:00 - 19.01.2021 06:00:00 (CET)Barranda, Spain (8365): sunshine duration: 13.01.2021 06:00:00 - 19.01.2021 06:00:00 (CET)Barranda, Spain (8365): precipitation: 13.01.2021 06:00:00 - 19.01.2021 06:00:00 (CET)
Date & Time tt [°C] td [°C] ff [km/h] ff [kn] fx [km/h] fx [kn] dd ppp [hPa] vv [km] sd [min] rr [mm]
19.01.2021 06:00:00 1,0 -3,6 8 4 19 11 WSW 1029,0 20 0 0,0
19.01.2021 05:00:00 0,1 -3,0 4 2 24 13 W 1029,6 20 0 0,0
19.01.2021 04:00:00 1,6 -2,7 14 8 22 12 WSW 1029,6 20 0 0,0
19.01.2021 03:00:00 2,2 -2,0 14 7 23 12 W 1029,6 20 0 0,0
19.01.2021 02:00:00 2,2 -1,7 8 5 21 11 W 1029,9 20 0 0,0
19.01.2021 01:00:00 1,5 -1,0 6 4 16 9 W 1030,5 20 0 -
19.01.2021 00:00:00 3,0 -1,0 10 5 22 12 W 1030,3 20 0 0,0
18.01.2021 23:00:00 4,2 -0,3 9 5 19 10 WSW 1029,7 20 0 0,0
18.01.2021 22:00:00 4,3 0,0 13 7 18 10 WSW 1029,6 20 0 0,0
18.01.2021 21:00:00 5,8 0,9 8 5 13 7 WSW 1029,0 20 0 0,0
18.01.2021 20:00:00 6,3 0,9 7 4 11 6 W 1028,6 20 0 0,0
18.01.2021 19:00:00 7,6 1,5 6 3 10 5 NW 1027,7 20 0 -
18.01.2021 18:00:00 10,7 1,7 4 2 12 6 NW 1026,5 20 0 0,0
18.01.2021 17:00:00 13,1 1,1 6 3 12 6 E 1025,2 20 21 0,0
18.01.2021 16:00:00 13,5 0,4 7 4 16 8 E 1025,2 20 2 0,0
18.01.2021 15:00:00 13,9 0,4 7 4 19 10 E 1025,4 20 0 0,0
18.01.2021 14:00:00 14,4 0,2 9 5 20 11 E 1025,7 20 13 0,0
18.01.2021 13:00:00 14,4 -0,5 6 3 11 6 ENE 1026,5 20 60 -
18.01.2021 12:00:00 13,5 -0,3 4 2 15 8 S 1027,8 20 60 0,0
18.01.2021 11:00:00 8,3 -0,7 11 6 23 12 WSW 1029,3 20 60 0,0
18.01.2021 10:00:00 4,3 -2,5 15 8 23 13 WSW 1030,3 20 36 0,0
18.01.2021 09:00:00 2,0 -3,0 6 4 25 13 W 1030,5 20 0 0,0
18.01.2021 08:00:00 2,2 -3,0 19 10 23 13 WSW 1030,0 20 0 0,0
18.01.2021 07:00:00 2,5 -3,0 10 5 19 10 WSW 1029,3 20 0 -
18.01.2021 06:00:00 3,6 -3,0 12 7 20 11 W 1028,8 20 0 0,0
18.01.2021 05:00:00 1,7 -2,7 3 2 19 10 W 1029,3 20 0 0,0
18.01.2021 04:00:00 3,4 -3,6 5 3 17 9 WSW 1029,1 20 0 0,0
18.01.2021 03:00:00 3,5 -4,5 10 5 16 9 W 1029,6 20 0 0,0
18.01.2021 02:00:00 3,4 -5,4 4 2 18 10 SW 1029,6 20 0 0,0
18.01.2021 01:00:00 3,7 -6,4 8 4 18 10 W 1029,4 20 0 -
18.01.2021 00:00:00 2,8 -5,7 2 1 22 12 S 1029,8 20 0 0,0
17.01.2021 23:00:00 4,8 -5,7 6 4 22 12 S 1029,0 20 0 0,0
17.01.2021 22:00:00 6,2 -4,8 12 6 21 11 W 1028,6 20 0 0,0
17.01.2021 21:00:00 5,0 -4,5 8 4 16 8 W 1028,9 20 0 0,0
17.01.2021 20:00:00 8,1 -5,7 8 4 14 8 SW 1028,0 20 0 0,0
17.01.2021 19:00:00 8,1 -3,9 7 4 13 7 NW 1027,6 20 0 -
17.01.2021 18:00:00 10,8 -2,0 5 3 9 5 NW 1026,5 20 0 0,0
17.01.2021 17:00:00 15,8 -5,4 5 3 11 6 E 1024,9 20 21 0,0
17.01.2021 16:00:00 16,5 -4,2 7 4 15 8 E 1024,6 20 3 0,0
17.01.2021 15:00:00 16,9 -4,5 8 5 16 9 E 1024,7 20 3 0,0
17.01.2021 14:00:00 17,1 -6,0 6 3 12 6 ESE 1025,5 20 9 0,0
17.01.2021 13:00:00 17,7 -6,4 6 3 11 6 ESE 1026,3 20 60 -
17.01.2021 12:00:00 16,2 -6,7 5 3 14 8 S 1027,7 20 60 0,0
17.01.2021 11:00:00 12,6 -5,1 9 5 16 9 WSW 1028,9 20 60 0,0
17.01.2021 10:00:00 9,2 -5,7 4 2 24 13 SSW 1029,4 20 60 0,0
17.01.2021 09:00:00 5,1 -7,1 17 9 29 16 W 1030,0 20 9 0,0
17.01.2021 08:00:00 3,9 -7,1 11 6 24 13 W 1030,3 20 0 0,0
17.01.2021 07:00:00 2,8 -7,5 8 4 19 10 W 1030,5 20 0 -
17.01.2021 06:00:00 3,3 -7,5 8 5 25 13 W 1030,1 20 0 0,0
17.01.2021 05:00:00 2,8 -6,7 4 2 29 16 SW 1030,5 20 0 0,0
17.01.2021 04:00:00 3,5 -7,5 20 11 30 16 W 1030,6 20 0 0,0
17.01.2021 03:00:00 3,8 -7,5 12 6 22 12 W 1030,7 20 0 0,0
17.01.2021 02:00:00 0,1 -6,0 2 1 21 11 W 1031,8 20 0 0,0
17.01.2021 01:00:00 2,8 -6,0 12 7 21 12 W 1031,4 20 0 -
17.01.2021 00:00:00 2,6 -5,4 10 5 19 10 W 1031,7 20 0 0,0
16.01.2021 23:00:00 0,7 -4,5 6 3 14 8 WNW 1031,9 20 0 0,0
16.01.2021 22:00:00 2,9 -4,5 9 5 19 11 W 1031,2 20 0 0,0
16.01.2021 21:00:00 3,7 -4,2 13 7 20 11 W 1030,9 20 0 0,0
16.01.2021 20:00:00 3,2 -3,9 4 2 9 5 WNW 1030,8 20 0 0,0
16.01.2021 19:00:00 5,5 -2,7 5 3 13 7 WNW 1029,5 20 0 -
16.01.2021 18:00:00 8,4 -2,2 5 3 11 6 WNW 1028,3 20 0 0,0
16.01.2021 17:00:00 11,4 -4,8 4 2 11 6 ESE 1027,0 20 20 0,0
16.01.2021 16:00:00 11,7 -4,5 5 3 14 8 S 1026,7 20 5 0,0
16.01.2021 15:00:00 11,6 -4,5 6 3 18 10 ESE 1026,7 20 4 0,0
16.01.2021 14:00:00 11,3 -4,2 10 5 24 13 E 1026,9 20 13 0,0
16.01.2021 13:00:00 10,8 -4,5 13 7 24 13 ENE 1027,2 20 59 -
16.01.2021 12:00:00 10,0 -4,5 8 5 16 8 E 1028,3 20 60 0,0
16.01.2021 11:00:00 8,8 -5,1 5 3 11 6 SE 1028,3 20 60 0,0
16.01.2021 10:00:00 6,7 -4,8 2 1 9 5 SE 1028,1 20 60 0,0
16.01.2021 09:00:00 0,1 -4,8 3 2 9 5 WNW 1029,1 20 9 0,0
16.01.2021 08:00:00 -0,1 -6,0 3 1 8 5 WSW 1028,1 20 0 0,0
16.01.2021 07:00:00 0,8 -5,4 4 2 8 4 NW 1027,4 20 0 -
16.01.2021 06:00:00 2,2 -6,7 4 2 10 6 WNW 1026,0 20 0 0,0
16.01.2021 05:00:00 3,3 -7,1 8 5 18 10 ENE 1025,2 20 0 0,0
16.01.2021 04:00:00 4,6 -6,7 4 2 21 11 N 1025,0 20 0 0,0
16.01.2021 03:00:00 8,0 -9,4 11 6 23 12 SW 1024,1 20 0 0,0
16.01.2021 02:00:00 7,2 -9,4 10 6 19 10 SW 1024,7 20 0 0,0
16.01.2021 01:00:00 2,5 -7,1 5 3 11 6 WNW 1026,7 20 0 -
16.01.2021 00:00:00 2,4 -5,4 5 3 9 5 WNW 1026,9 20 0 0,0
15.01.2021 23:00:00 3,5 -6,4 4 2 11 6 N 1026,6 20 0 0,0
15.01.2021 22:00:00 7,6 -9,0 12 6 19 10 SW 1025,0 20 0 0,0
15.01.2021 21:00:00 6,2 -5,4 11 6 17 9 SW 1025,4 20 0 0,0
15.01.2021 20:00:00 3,7 -2,5 5 3 12 6 ENE 1026,6 20 0 0,0
15.01.2021 19:00:00 5,3 -2,0 4 2 12 6 WNW 1025,8 20 0 -
15.01.2021 18:00:00 9,7 -1,4 4 2 10 5 SSW 1024,3 20 0 0,0
15.01.2021 17:00:00 13,9 -1,4 3 1 8 4 SE 1022,7 20 20 0,0
15.01.2021 16:00:00 14,0 -1,2 5 3 19 10 SSE 1022,6 20 5 0,0
15.01.2021 15:00:00 14,2 -2,7 8 4 19 10 E 1022,7 20 2 0,0
15.01.2021 14:00:00 13,3 -4,5 5 3 14 8 ENE 1023,5 20 6 0,0
15.01.2021 13:00:00 13,7 -4,2 5 3 10 6 ESE 1024,3 20 60 -
15.01.2021 12:00:00 12,2 -3,6 4 2 11 6 S 1025,5 20 60 0,0
15.01.2021 11:00:00 8,5 -2,7 9 5 20 11 WSW 1026,6 20 60 0,0
15.01.2021 10:00:00 5,2 -3,6 12 7 23 12 W 1027,1 20 60 0,0
15.01.2021 09:00:00 -0,1 -4,5 4 2 14 8 WSW 1028,4 20 10 0,0
15.01.2021 08:00:00 -1,2 -4,5 7 4 16 9 SSW 1028,2 20 0 0,0
15.01.2021 07:00:00 0,1 -4,5 8 4 15 8 WNW 1027,6 20 0 -
15.01.2021 06:00:00 2,5 -5,4 9 5 22 12 W 1026,5 20 0 0,0
15.01.2021 05:00:00 1,2 -4,8 8 4 14 7 WSW 1027,7 20 0 0,0
15.01.2021 04:00:00 0,5 -5,1 5 3 16 8 SW 1028,1 20 0 0,0
15.01.2021 03:00:00 0,7 -5,1 5 3 13 7 WNW 1027,7 20 0 0,0
15.01.2021 02:00:00 1,3 -5,4 6 3 12 6 W 1027,4 20 0 0,0
15.01.2021 01:00:00 1,7 -4,5 4 2 12 7 SSW 1027,6 20 0 -
15.01.2021 00:00:00 1,0 -3,6 4 2 13 7 NW 1027,7 20 0 0,0
14.01.2021 23:00:00 1,4 -4,5 3 2 7 4 W 1027,4 20 0 0,0
14.01.2021 22:00:00 2,3 -3,3 3 2 14 8 WSW 1026,8 20 0 0,0
14.01.2021 21:00:00 5,6 -3,0 10 5 19 11 WSW 1025,6 20 0 0,0
14.01.2021 20:00:00 5,6 -3,3 6 4 14 8 W 1025,4 20 0 0,0
14.01.2021 19:00:00 5,2 -2,7 4 2 9 5 WNW 1025,1 20 0 -
14.01.2021 18:00:00 8,9 -2,7 7 4 11 6 WNW 1023,5 20 0 0,0
14.01.2021 17:00:00 13,4 -1,4 4 2 9 5 WSW 1022,3 20 2 0,0
14.01.2021 16:00:00 15,0 -4,5 5 3 11 6 SSE 1021,3 20 1 0,0
14.01.2021 15:00:00 15,1 -1,4 7 4 13 7 S 1021,3 20 5 0,0
14.01.2021 14:00:00 15,3 -1,7 6 3 11 6 S 1021,9 20 7 0,0
14.01.2021 13:00:00 14,0 -2,5 5 3 18 10 SW 1023,5 20 59 -
14.01.2021 12:00:00 11,5 -2,7 11 6 21 11 SW 1025,1 20 60 0,0
14.01.2021 11:00:00 8,4 -3,6 14 7 25 14 WSW 1026,2 20 60 0,0
14.01.2021 10:00:00 5,3 -4,5 12 7 20 11 WSW 1027,0 20 60 0,0
14.01.2021 09:00:00 1,7 -5,4 7 4 27 15 WSW 1027,9 20 11 0,0
14.01.2021 08:00:00 1,7 -5,7 15 8 29 15 W 1027,6 20 0 0,0
14.01.2021 07:00:00 2,4 -5,4 11 6 26 14 W 1027,5 20 0 -
14.01.2021 06:00:00 2,6 -5,4 13 7 26 14 W 1027,6 20 0 0,0
14.01.2021 05:00:00 2,5 -5,4 13 7 23 12 W 1027,6 20 0 0,0
14.01.2021 04:00:00 2,1 -5,7 14 7 23 12 W 1028,2 20 0 0,0
14.01.2021 03:00:00 2,0 -5,7 8 4 22 12 WSW 1028,6 20 0 0,0
14.01.2021 02:00:00 2,3 -5,1 12 7 23 13 WSW 1029,1 20 0 0,0
14.01.2021 01:00:00 2,7 -5,1 12 7 20 11 W 1029,5 20 0 -
14.01.2021 00:00:00 2,2 -4,2 13 7 23 12 W 1030,3 20 0 0,0
13.01.2021 23:00:00 2,3 -4,2 12 6 20 11 W 1030,2 20 0 0,0
13.01.2021 22:00:00 2,8 -3,9 10 6 20 11 W 1030,0 20 0 0,0
13.01.2021 21:00:00 4,1 -3,6 10 5 17 9 WSW 1029,5 20 0 0,0
13.01.2021 20:00:00 3,8 -2,7 3 2 10 5 W 1029,6 20 0 0,0
13.01.2021 19:00:00 5,5 -1,4 7 4 11 6 NW 1028,3 20 0 -
13.01.2021 18:00:00 9,4 -1,0 4 2 13 7 NW 1027,2 20 0 0,0
13.01.2021 17:00:00 13,0 -3,9 4 2 10 5 SE 1025,8 20 16 0,0
13.01.2021 16:00:00 13,4 -4,5 5 3 12 7 ESE 1025,5 20 3 0,0
13.01.2021 15:00:00 13,3 -3,6 5 3 11 6 E 1025,7 20 5 0,0
13.01.2021 14:00:00 13,3 -3,6 5 3 11 6 E 1026,1 20 8 0,0
13.01.2021 13:00:00 13,5 -3,3 5 3 13 7 E 1027,0 20 60 -
13.01.2021 12:00:00 11,7 -6,4 8 4 17 9 WSW 1028,3 20 60 0,0
13.01.2021 11:00:00 9,0 -5,7 9 5 22 12 WSW 1029,2 20 60 0,0
13.01.2021 10:00:00 4,7 -6,0 14 7 26 14 W 1030,2 20 60 0,0
13.01.2021 09:00:00 1,1 -6,7 16 9 28 15 W 1030,9 20 11 0,0
13.01.2021 08:00:00 -1,8 -5,7 2 1 13 7 WSW 1031,1 20 0 0,0
13.01.2021 07:00:00 0,7 -6,7 18 10 29 15 WSW 1029,9 20 0 -
13.01.2021 06:00:00 1,6 -7,1 13 7 27 14 W 1029,6 20 0 0,0

tt = temperature
td = dewpoint
ff = wind speed
fx = gusts
dd = wind direction
ppp = reduced air pressure
vv = visibility
sd = sunshine duration
rr = precipitation

Next stations